Regional Weather Roundup
Issued by NWS Upton, NY

Current Version | Previous Version | Text Only | Print | Product List | Glossary Off
Versions: 1 2 3 4 5 6 7 8 9 10 11 12 13 14 15 16 17 18 19 20 21 22 23 24 25 26 27

000
ASUS41 KOKX 252305
RWROKX

REGIONAL WEATHER ROUNDUP
NATIONAL WEATHER SERVICE NEW YORK NY
700 PM EDT SAT OCT 25 2014

NOTE: "FAIR" INDICATES FEW OR NO CLOUDS BELOW 12,000 FEET WITH NO
SIGNIFICANT WEATHER AND/OR OBSTRUCTIONS TO VISIBILITY.

NYZ071-072-176-178-NJZ106-104-260000-
NEW YORK CITY METRO AREA


CITY           SKY/WX    TMP DP  RH WIND       PRES   REMARKS
CENTRAL PARK   CLEAR     64  42  44 SW12G20   29.66F
LAGUARDIA APRT PTCLDY    65  43  44 SW7       29.64S
KENNEDY INTL   PTCLDY    62  47  57 SW12      29.66F
NEWARK/LIBERTY PTCLDY    63  43  48 SW9       29.64F
BRNX BOT. GARD   N/A     64  43  45 SE5       29.65S
TETERBORO      PTCLDY    62  43  49 SW8       29.63F
$$

NYZ177-179-078>081-260000-
LONG ISLAND NEW YORK

CITY           SKY/WX    TMP DP  RH WIND       PRES   REMARKS
FARMINGDALE    CLEAR     62  44  51 SW7       29.65F
ISLIP          PTCLDY    58  48  69 SW6       29.63F
SHIRLEY        CLEAR     59  49  69 SW7       29.65F
WESTHAMPTON    CLEAR     59  48  67 SW7       29.66F
MONTAUK POINT    N/A     59  46  62 SW8       29.66R
$$

NYZ052-065-067-260000-
HUDSON VALLEY

CITY           SKY/WX    TMP DP  RH WIND       PRES   REMARKS
WHITE PLAINS   PTCLDY    60  43  53 CALM      29.63S
NEWBURGH       CLEAR     61  45  55 CALM      29.62F
MONTGOMERY     CLOUDY    59  43  55 S3        29.60F
POUGHKEEPSIE   MOCLDY    58  45  62 CALM      29.61S
ALBANY         MOCLDY    59  44  57 S7        29.54F
$$

NJZ001-105-106-008-010-013-015-019>022-104-260000-
NEW JERSEY

CITY           SKY/WX    TMP DP  RH WIND       PRES   REMARKS
NEWARK/LIBERTY PTCLDY    63  43  48 SW9       29.64F
TETERBORO      PTCLDY    62  43  49 SW8       29.63F
CALDWELL       CLOUDY    63  42  46 SW6       29.65S
MORRISTOWN     CLEAR     63  45  51 SW10      29.65S
SOMERVILLE     MOCLDY    58  44  60 S3        29.64S
SUSSEX         CLOUDY    63  43  48 CALM      29.63S
ANDOVER          N/A     62  43  49 VRB6      29.65R
TRENTON        MOCLDY    62  42  47 SW3       29.67S
MILLVILLE      CLEAR     60  46  59 SW3       29.71F
ATLANTIC CITY  CLEAR     60  45  57 SW7       29.71F
WRIGHTSTOWN    CLEAR     56  47  70 SW7       29.66F HAZE
TOMS RIVER     CLEAR     57  46  67 CALM      29.69F
BELMAR         CLEAR     61  43  51 SW8       29.67F
$$

PAZ047>061-062-071-260000-
EASTERN PENNSYLVANIA

CITY           SKY/WX    TMP DP  RH WIND       PRES   REMARKS
PHILADELPHIA   MOCLDY    66  45  46 SW10      29.69F
ALLENTOWN      MOCLDY    60  43  53 SW8       29.65F
SCRANTON       PTCLDY    65  43  44 SW13G21   29.62F
$$

CTZ002-004>006-009-010-012-RIZ004-006-007-MAZ004-011-015-260000-
SOUTHERN NEW ENGLAND
 IN CT

CITY           SKY/WX    TMP DP  RH WIND       PRES   REMARKS
BRADLEY INTL   MOCLDY    61  42  49 SW7       29.60S
HARTFORD       MOCLDY    55  44  66 S3        29.61S
DANBURY        MOCLDY    53  44  71 SW3       29.63F
WTRBRY/OXFORD  MOCLDY    57  39  51 CALM      29.62F
BRIDGEPORT     CLEAR     62  50  64 SW9       29.63F
MERIDEN        PTCLDY    52  44  74 CALM      29.62F
NEW HAVEN      PTCLDY    63  51  65 SW6       29.63F
CHESTER        FAIR      57  46  67 SW3       29.63F
GROTON         CLEAR     59  48  67 W9        29.62F
WILLIMANTIC    CLEAR     56  43  61 CALM      29.62S

 IN RI

CITY           SKY/WX    TMP DP  RH WIND       PRES   REMARKS
PROVIDENCE     MOCLDY    56  44  64 SW7       29.62R
BLOCK ISLAND   CLEAR     59  48  67 W16       29.64S
WESTERLY       CLEAR     60  48  64 SW6       29.63S

 IN MA

CITY           SKY/WX    TMP DP  RH WIND       PRES   REMARKS
BOSTON         PTCLDY    60  43  53 W8        29.59R
WORCESTER      PTCLDY    51  42  71 SW6       29.60F
WESTFIELD      MOCLDY    54  43  66 SE5       29.59F
PROVINCETOWN   PTCLDY    55   1  11 SW13      29.60R
NANTUCKET      CLEAR     57  51  80 W12       29.63S
$$

ANZ330-335-338-340-345-350-353-355-260000-
COASTAL MARINE OBSERVATIONS


STATION/POSITION TIME  SKY/WX   TEMP    WIND        PRES    VSBY  WAVE
                                AIR SEA DIR/SP/G                  HT/PER
                 (UTC)          (F)     (DEG/KT/KT) (MB)    (MI)  (FT/S)
NY HARB ENTRANCE NOT AVBL
4S FIRE IS       2300               62                N/A           2/ 3
20S FIRE ISLAND  2300            64 63  240/ 14/ 17 1004.4          3/ 4
23SW MTP         2300                                 N/A           4/ 5
HUDSON CANYON    2300            62 65  240/ 19/ 25 1005.2          4/ 5
EXECUTION ROCKS  2300            65 62  230/ 12/ 17   N/A
WESTERN LI SOUND 2300            65     230/ 12/ 14   N/A           1
CENTRAL LI SOUND 2200            62 63  210/ 14/ 16   N/A           2/ 4
EASTERN LI SOUND 2200            62 62  230/ 14/ 17   N/A
ROBBINS REEF     2300            65     210/  7/  8 1002.8
$$


>>>>>>>>>>>>>>>>>>>>>>>>>>>> KEY <<<<<<<<<<<<<<<<<<<<<<<<<<<
>                                                          <
>     SKY/WX - SKY CONDITION/PRESENT WEATHER               <
>     TMP    - TEMPERATURE IN FAHRENHEIT                   <
>     DP     - DEWPOINT IN FAHRENHEIT                      <
>     RH     - RELATIVE HUMIDITY IN PERCENT                <
>     WIND   - DIRECTION AND SPEED IN MPH                  <
>     PRES   - MEAN SEA LEVEL PRESSURE IN INCHES OF HG     <
>     WCI    - WIND CHILL INDEX                            <
>     VSB    - VISIBILITY IN MILES                         <
>     HX     - HEAT INDEX                                  <
>     TC     - TEMPERATURE IN CELSIUS                      <
>     VRB    - VARIABLE WIND DIRECTION                     <
>                                                          <
>>>>>>>>>>>>>>>>>>>>>>>>>>>> KEY <<<<<<<<<<<<<<<<<<<<<<<<<<<





USA.gov is the U.S. government's official web portal to all federal, state and local government web resources and services.